Starlink 30973

operational
NORAD ID: 58713 Int'l Des: 2024-002 Owner: SPXS Country: US Constellation: starlink
LEOCIRCULAR

Starlink 30973について

説明を読み込み中...

リアルタイム位置

3D地球を読み込み中...

次回通過

高度履歴

Altitude vs Time

uPlot chart will show altitude changes over time

軌道要素

1 58713U 24002J 25258.49481973 -.00002500 00000-0 -72317-4 0 9992
2 58713 53.1613 323.5975 0002469 47.8806 312.2404 15.30176948 95197
Epoch: Sep 15, 2025 • Age: 10 hours

現在のステータス

高度 478.2 km
速度 7.63 km/s
衛星直下点 44.60°N, 50.72°E
打ち上げ日 Jan 3, 2024
運用期間 1.7 years
タイプ internet

技術仕様

分類 Payload
質量 730.00 kg
乾燥質量 700.00 kg
総質量 730.00 kg
長さ 0.30 m
直径 4.10 m
スパン 29.00 m
形状 Box + pan
製造者 SPXS
バスタイプ Starlink V2M
フェーズステータス In Orbit
所有者/国 SPXS/US

大規模コンステレーション

Loading constellations...